Regional Weather Roundup
Issued by NWS Charleston, SC

Current Version | Previous Version | Graphics & Text | Print | Product List | Glossary On
Versions: 1 2 3 4 5 6 7 8 9 10 11 12 13 14 15 16 17 18 19 20 21 22 23 24 25 26 27 28 29 30 31 32 33 34 35 36 37 38 39 40 41 42 43 44 45 46 47 48 49 50
000
ASUS42 KCHS 202112
RWRCHS

REGIONAL WEATHER ROUNDUP
NATIONAL WEATHER SERVICE CHARLESTON SC
500 PM EDT THU JUL 20 2017

NOTE: "FAIR" INDICATES FEW OR NO CLOUDS BELOW 12,000 FEET WITH NO
SIGNIFICANT WEATHER AND/OR OBSTRUCTIONS TO VISIBILITY.

NOT ALL STATIONS ARE QUALITY CONTROLLED. USE DATA WITH CAUTION...
ESPECIALLY DEWPOINT OBSERVATIONS.

SCZ027-030-031-034>040-042>050-202200-
...SOUTHEAST SOUTH CAROLINA...

CITY           SKY/WX    TMP DP  RH WIND       PRES   REMARKS
N CHARLESTON   MOSUNNY   86  74  67 S10       30.00F HX  94
WATERFRONT PRK   N/A     85  77  76 S9        30.00F HX  95
JOHNS ISLAND   FAIR      88  75  66 S13       30.01F HX  97
PINOPOLIS        N/A     91  70  49 VRB2      29.93F HX  97
MONCKS CORNER  FAIR      88  75  66 S7        29.99F HX  97
SUMMERVILLE    FAIR      86  73  66 S8        30.01F HX  93
BEAUFORT MCAS  TSTM      86  79  79 S6        30.02F HX  99
BEAUFORT ARPT  FAIR      86  75  70 SW9       30.01F HX  95
HILTON HEAD IS SUNNY     86  77  74 S12       30.03F HX  97
WALTERBORO     PTCLDY    91  72  52 E6        30.00F HX  98
ALLENDALE        N/A    N/A N/A N/A MISG        N/A

...SOUTHERN MIDLANDS AND PEE DEE...

CITY           SKY/WX    TMP DP  RH WIND       PRES   REMARKS
GEORGETOWN     RAIN      84  77  79 S5        30.03F HX  94
KINGSTREE      FAIR      90  70  51 CALM      30.00F HX  95
ORANGEBURG     MOSUNNY   91  71  51 E6        29.99F HX  97
BARNWELL       FAIR      93  79  62 S6        29.99F HX 110
AIKEN          MOCLDY    90  70  51 E3        30.03F HX  95
MANNING        FAIR      91  63  38 W10G17    30.00F HX  92
COLUMBIA       PTSUNNY   92  74  55 SE12      29.99F HX 101
SUMTER         MOSUNNY   79  67  67 S3        29.99F
FLORENCE       SUNNY     91  71  51 S6        30.00F HX  97
MYRTLE BEACH   MOSUNNY   86  75  70 S12       30.03F HX  95
N MYRTLE BEACH SUNNY     85  77  77 S13       30.01F HX  95

$$

GAZ063-065-086>088-099>101-113>116-118-119-134>141-150-202200-
...SOUTHEAST GEORGIA...

CITY           SKY/WX    TMP DP  RH WIND       PRES   REMARKS
SAVANNAH ARPT  CLOUDY    79  71  76 W8        30.04S
HUNTER AAF     PTSUNNY   78  71  80 CALM      30.01F
FORT STEWART   TSTM      72  68  88 SW12      30.05R
STATESBORO     CLOUDY    76  72  87 SE7       30.03F
SYLVANIA       CLOUDY    78  73  85 SE5       30.04S
CLAXTON        CLOUDY    73  70  90 E3        30.02F

...CSRA...CENTRAL AND FAR SOUTHEAST GEORGIA...

CITY           SKY/WX    TMP DP  RH WIND       PRES   REMARKS
THOMSON        MOSUNNY   91  70  49 CALM      30.04F HX  96
AUGUSTA-BUSH   MOSUNNY   97  71  42 CALM      29.97F HX 104
AUGUSTA-DANIEL PTSUNNY   97  66  36 W6        30.00F HX 100
SWAINSBORO     MOCLDY    91  73  55 S7        30.00F HX 100
VIDALIA        CLOUDY    90  77  66 CALM      29.99F HX 102
EASTMAN        FAIR      94  55  25 N5        30.02F HX  92
HAZLEHURST     FAIR      93  73  52 SE3       29.99F HX 102
ALMA           PTSUNNY   82  74  76 CALM      30.00F THUNDER
WAYCROSS       TSTM      87  85  91 N3        30.00S HX 112
JESUP          NOT AVBL
BAXLEY         FAIR      84  81  89 CALM      30.02S HX  98
BRUNSWICK      SUNNY     90  75  62 S12       30.02F HX 100
SAINT SIMONS   SUNNY     87  77  72 SE12G20   30.01F HX  99

$$

SCZ027-028-034-036>038-045-046-048>050-GAZ119-141-202200-
...LAKE AND SUPPLEMENTAL COASTAL OBSERVATIONS...

STATION/POSITION TIME  TEMP    WIND        PRES    WAVE   SWELL
                       AIR SEA DIR/SP/G            HT/PER HT/PER/DIR
                 (UTC) (F)     (DEG/KT/KT) (MB)    (FT/S) (FT/S/D)
WINYAH BAY       1945   85     160/ 10     1017.0
LAKE MURRAY      2020   90      90/  3/  4 1014.9F
ACE BASIN NERRS  1945   87     160/  3     1017.0
FORT PULASKI     2048   86 86  200/  7/ 10 1016.9F
SAPELO ISLAND    2000   90     160/ 10     1017.0

$$

ANZ835-935-AMZ111-154-330-350-352-354-370-450-454-472-202200-
...C-MAN AND BUOY OBSERVATIONS...

STATION/POSITION TIME  TEMP    WIND        PRES    WAVE   SWELL
                       AIR SEA DIR/SP/G            HT/PER HT/PER/DIR
                 (UTC) (F)     (DEG/KT/KT) (MB)    (FT/S) (FT/S/D)
BUOY 41004       2050   83 85  180/  8/ 12 1016.4F   2/ 8   2/120/ 8
BUOY 41008       2050   83 84  170/ 12/ 14 1016.0F   2/ 8   2/ 90/ 8
FOLLY BEACH CMAN 2000   85     180/ 12/ 13 1017.9F
CAPERS NEARSHORE 2008   82 84  200/ 14/ 17 1016.9F
FRIPP NEARSHORE  2008   83 84  180/ 14/ 16 1016.5F


STATION/POSITION TIME  TEMP    WIND        PRES    WAVE   SWELL
                       AIR SEA DIR/SP/G            HT/PER HT/PER/DIR
                 (UTC) (F)     (DEG/KT/KT) (MB)    (FT/S) (FT/S/D)
5E ST. MARYS GA  2030      84                N/A     2/ 7
FRYING PAN BUOY  2050   83 85  230/  8/ 12 1016.4F   2/ 8   2/120/ 8
BUOY 41025       2050   83 87  200/  6/  8 1016.5F   3/ 8   3/150/ 8
CAPE LOOKOUT NC  2000   84     190/  7/  9 1016.9F
BUOY 41002       2050   81 84  210/ 10/ 12 1017.8F   3/ 8   3/110/ 8
BUOY 41010       2050   81 85   60/  8/ 12 1017.8F   3/ 8   2/ 80/ 8
ST AUGUSTINE FL  2100   82 84  110/ 12/ 13 1016.9F


$$



USA.gov is the U.S. government's official web portal to all federal, state and local government web resources and services.